Regional Weather Roundup
Issued by NWS

Home | Current Version | Previous Version | Graphics & Text | Print | Product List | Glossary Off
Versions: 1 2 3 4 5 6 7 8 9 10 11 12 13 14 15 16 17 18 19 20 21 22 23 24 25 26 27 28 29 30 31 32 33 34 35 36 37 38 39 40 41 42 43 44 45 46 47 48 49 50

414
ASUS43 KFSD 182010
RWRSD

WEATHER ROUNDUP FOR SOUTH DAKOTA
NATIONAL WEATHER SERVICE SIOUX FALLS SD
200 PM CST THU JAN 18 2018

NOTE: "FAIR" INDICATES FEW OR NO CLOUDS BELOW 12,000 FEET WITH NO
SIGNIFICANT WEATHER AND/OR OBSTRUCTIONS TO VISIBILITY.


SDZ001>005-009-010-012>017-182100-
NORTHWEST AND NORTH CENTRAL SOUTH DAKOTA

CITY           SKY/WX    TMP DP  RH WIND       PRES   REMARKS
BUFFALO          N/A     44  27  51 W9        29.70F
FAITH            N/A     45  27  49 SW8       29.77F
MOBRIDGE       CLOUDY    39  27  62 SE5       29.74F
$$

SDZ012>016-024>037-041>051-057-063-072>074-182100-
SOUTHWEST AND SOUTH CENTRAL SOUTH DAKOTA

CITY           SKY/WX    TMP DP  RH WIND       PRES   REMARKS
RAPID CTY ARPT CLOUDY    64  26  23 SE7       29.80F
PIERRE         NOT AVBL
CUSTER         PTSUNNY   53   8  16 SW9       29.87F
ELLSWORTH AFB  CLOUDY    55  24  30 SW5       29.79F
PHILIP         CLOUDY    48  28  46 W10       29.81F
PINE RIDGE     CLOUDY    48  27  44 SW6       29.89F
SPEARFISH        N/A     57  21  24 W10       29.81F
WINNER         FAIR      44  29  55 SW9       29.84F
$$

SDZ004>011-016>023-039-040-182100-
NORTHEAST SOUTH DAKOTA

CITY           SKY/WX    TMP DP  RH WIND       PRES   REMARKS
ABERDEEN       PTSUNNY   39  28  64 S7        29.78F
WATERTOWN      CLOUDY    39  27  62 W12       29.78F
BROOKINGS      CLOUDY    37  28  70 SW7       29.80F
SISSETON         N/A     43  26  51 W12       29.76F
$$

SDZ017-020-022-023-036>040-048>070-182100-
SOUTHEAST SOUTH DAKOTA

CITY           SKY/WX    TMP DP  RH WIND       PRES   REMARKS
SIOUX FALLS    CLOUDY    39  28  64 SW7       29.82F
HURON          CLOUDY    37  28  70 SE7       29.81F
CHAMBERLAIN    CLOUDY    41  31  66 SW5       29.82F
MITCHELL       CLOUDY    40  29  64 SW7       29.83F
YANKTON        CLOUDY    43  26  51 SW8       29.85F
$$

ABBREVIATIONS USED IN REMARKS
   TC - TEMPERATURE IN CELSIUS
  WCI - WIND CHILL INDEX
   HX - HEAT INDEX
  VSB - VISIBILITY





USA.gov is the U.S. government's official web portal to all federal, state and local government web resources and services.